GW6906 Weather Reports


time (UTC)temp
F
wind
direction
speed
knots
gust
knots
rain 1hr
in
rain 24hr
in
rain mn
in
humidity
%
barometer
mb
20260906151531 71 227 1.7 5.2 0.00 0.00 0.00 81 1021.0
20260906150033 70 218 1.7 4.3 0.00 0.00 0.00 82 1020.9
20260906144519 69 106 1.7 2.6 0.00 0.00 0.00 83 1020.8
20260906143025 69 170 0.9 5.2 0.00 0.00 0.00 84 1020.7
20260906141529 67 171 0.0 1.7 0.00 0.00 0.00 86 1020.6
20260906140038 66 186 0.0 4.3 0.00 0.00 0.00 87 1020.8
20260906134515 66 123 1.7 5.2 0.00 0.00 0.00 87 1020.9
20260906133027 65 175 0.9 3.5 0.00 0.00 0.00 87 1020.7
20260906131527 64 133 0.9 3.5 0.00 0.00 0.00 88 1020.6
20260906130029 64 145 0.9 5.2 0.00 0.00 0.00 88 1020.6
20260906124532 63 111 0.9 4.3 0.00 0.00 0.00 89 1020.5
20260906123034 62 110 1.7 3.5 0.00 0.00 0.00 91 1020.4
20260906121525 62 164 0.0 1.7 0.00 0.00 0.00 93 1020.4
20260906120032 62 88 0.0 3.5 0.00 0.00 0.00 93 1020.3
20260906114517 62 46 0.0 1.7 0.00 0.00 0.00 94 1020.3
20260906113020 62 94 0.0 1.7 0.00 0.00 0.00 94 1020.1
20260906111524 62 45 0.0 1.7 0.00 0.00 0.00 94 1020.1
20260906110030 62 116 0.0 1.7 0.00 0.00 0.00 94 1019.6
20260906104534 62 229 0.9 1.7 0.00 0.00 0.00 94 1019.2
20260906103014 62 158 0.0 1.7 0.00 0.00 0.00 94 1019.1
20260906101527 62 59 0.0 1.7 0.00 0.00 0.00 94 1019.2
20260906100031 63 39 0.9 1.7 0.00 0.00 0.00 94 1019.1
20260906094529 63 46 0.0 1.7 0.00 0.00 0.00 95 1019.2
20260906093046 64 49 0.0 1.7 0.00 0.00 0.00 94 1019.2
20260906091521 64 106 0.0 1.7 0.00 0.00 0.00 94 1019.3
20260906090030 63 42 0.9 1.7 0.00 0.00 0.00 94 1019.3
20260906084530 63 45 0.0 1.7 0.00 0.00 0.00 94 1019.2
20260906083031 63 45 0.9 1.7 0.00 0.00 0.00 93 1019.2
20260906081534 63 360 0.0 1.7 0.00 0.00 0.00 92 1019.2
20260906080026 63 360 0.0 1.7 0.00 0.00 0.00 91 1019.1
20260906074530 64 239 0.0 1.7 0.00 0.00 0.00 91 1019.1
20260906073047 64 268 0.0 1.7 0.00 0.00 0.00 92 1019.2
20260906071530 64 270 0.0 1.7 0.00 0.00 0.00 92 1019.3
20260906070035 64 274 0.9 3.5 0.00 0.00 0.00 92 1019.4
20260906064525 64 221 0.9 1.7 0.00 0.00 0.00 92 1019.3
20260906063028 64 261 0.0 1.7 0.00 0.00 0.00 92 1019.5
20260906061533 65 263 0.9 2.6 0.00 0.00 0.00 93 1019.5
20260906060018 65 281 0.9 1.7 0.00 0.00 0.00 93 1019.5
20260906054526 65 225 0.0 1.7 0.00 0.00 0.00 93 1019.4
20260906053004 65 136 0.0 1.7 0.00 0.00 0.00 93 1019.3
20260906051518 66 147 0.0 1.7 0.00 0.00 0.00 92 1019.3
20260906050017 66 117 0.0 2.6 0.00 0.00 0.00 92 1019.3
20260906044523 66 122 0.0 1.7 0.00 0.00 0.00 91 1019.2
20260906043039 67 221 1.7 3.5 0.00 0.00 0.00 91 1019.0
20260906041508 67 160 1.7 3.5 0.00 0.00 0.00 91 1018.9
20260906040014 68 107 0.9 5.2 0.00 0.00 0.00 91 1018.8
20260906034526 68 185 0.9 4.3 0.00 0.00 0.00 92 1018.5
20260906033026 68 230 0.0 2.6 0.00 0.00 0.00 93 1018.4
20260906031526 68 138 0.9 2.6 0.00 0.00 0.00 93 1018.5
20260906030011 68 107 0.0 2.6 0.00 0.00 0.00 92 1018.2
20260906024518 68 65 0.9 2.6 0.00 0.00 0.00 92 1018.1
20260906023024 69 127 0.0 3.5 0.00 0.00 0.00 92 1017.8
20260906021529 69 109 1.7 4.3 0.00 0.00 0.00 91 1017.6
20260906020029 69 163 1.7 7.0 0.00 0.00 0.00 90 1017.5
20260906014518 70 118 0.9 7.0 0.00 0.00 0.00 90 1017.4
20260906013021 70 71 1.7 7.0 0.00 0.00 0.00 90 1017.0
20260906011527 70 91 1.7 5.2 0.00 0.00 0.00 89 1016.9
20260906010031 70 185 1.7 6.1 0.00 0.00 0.00 89 1016.7
20260906004513 71 67 2.6 5.2 0.00 0.00 0.00 88 1016.9
20260906003016 71 30 1.7 5.2 0.00 0.00 0.00 88 1017.1
20260906001523 71 52 1.7 5.2 0.00 0.00 0.00 87 1017.4
20260906000028 72 63 0.9 2.6 0.00 0.00 0.00 86 1017.4
20260905234534 72 44 0.9 1.7 0.00 0.00 0.00 86 1017.4
20260905233014 72 49 0.9 2.6 0.00 0.00 0.00 85 1017.5
20260905231520 72 47 0.9 2.6 0.00 0.00 0.00 84 1017.4
20260905230028 73 41 0.9 3.5 0.00 0.00 0.00 82 1017.4
20260905224535 74 21 1.7 5.2 0.00 0.00 0.00 79 1017.6
20260905223035 76 50 1.7 3.5 0.00 0.00 0.00 76 1017.6
20260905221518 76 68 0.9 6.1 0.00 0.00 0.00 75 1017.6
20260905220022 76 32 2.6 7.8 0.00 0.00 0.00 76 1017.4
20260905214529 76 42 1.7 7.8 0.00 0.00 0.00 76 1017.4
20260905213031 75 26 2.6 8.7 0.00 0.00 0.00 79 1017.0
20260905211529 76 86 2.6 7.0 0.00 0.00 0.00 79 1017.2
20260905210020 76 55 1.7 7.8 0.00 0.00 0.00 79 1017.3
20260905204526 76 155 2.6 7.0 0.00 0.00 0.00 81 1017.5
20260905203032 77 55 2.6 7.8 0.00 0.00 0.00 78 1017.5
20260905201532 76 81 3.5 8.7 0.00 0.00 0.00 79 1017.6
20260905200018 75 71 1.7 6.1 0.00 0.00 0.00 81 1017.7
20260905194526 77 36 2.6 8.7 0.00 0.00 0.00 79 1017.5
20260905193030 76 47 2.6 7.8 0.00 0.00 0.00 82 1017.4
20260905191537 74 45 3.5 7.8 0.00 0.00 0.00 86 1017.5
20260905190045 74 45 4.3 7.0 0.00 0.00 0.00 86 1017.6
20260905184523 72 98 2.6 6.1 0.00 0.00 0.00 88 1017.7
20260905183024 72 87 3.5 9.6 0.00 0.00 0.00 88 1017.8
20260905181531 70 88 2.6 7.0 0.00 0.00 0.00 92 1017.8
20260905180031 70 111 1.7 6.1 0.00 0.00 0.00 93 1017.9
20260905174533 70 51 3.5 7.0 0.00 0.01 0.00 94 1017.9
20260905173023 70 67 1.7 7.0 0.00 0.07 0.00 94 1018.0
20260905171533 70 74 3.5 7.8 0.00 0.07 0.00 95 1018.0
20260905170030 69 86 2.6 6.1 0.00 0.07 0.00 95 1018.0
20260905164537 70 63 0.9 6.1 0.00 0.07 0.00 95 1018.1
20260905163032 69 61 2.6 6.1 0.00 0.07 0.00 95 1018.1
20260905161526 69 110 3.5 7.0 0.00 0.07 0.00 95 1018.1
20260905160030 70 184 1.7 7.8 0.00 0.07 0.00 95 1018.0
20260905154532 70 91 2.6 7.8 0.00 0.07 0.00 95 1017.8
20260905153049 70 71 2.6 7.8 0.00 0.07 0.00 95 1017.8